User: anonymous   Login
Location: Pianadetto
(44.4000°N, 10.1000°E)
Time: 00:33:39
(UTC+00:00)
Language:

ADEOS II - Orbit

View from above orbital plane
View from above orbital plane
View from above satellite
View from above satellite

Ground track
Ground track

The orbit data is extracted from the following two-line orbital elements,

1 27597U 02056A   22225.45508132  .00000127  00000-0  69130-4 0  9997
2 27597  98.6083 168.4800 0001023 132.7804 227.3463 14.27632777 24104
Epoch (UTC): 13 August 2022 10:55:19
Eccentricity: 0.0001023
inclination: 98.6083°
perigee height: 799 km
apogee height: 800 km
right ascension of ascending node: 168.4800°
argument of perigee: 132.7804°
revolutions per day: 14.27632777
mean anomaly at epoch: 227.3463°
orbit number at epoch: 2410

The dashed part of the orbit path shows where the satellite is in the earth's shadow,  

DLR